RIO_GALLEGOS_ARPT current weather conditions

sailwx.info

Wind at 0 knots

Air temperature 3.0° C
Visibility: greater than 5.4 NM
Dewpoint -6.0° C

Last reported at 2017-Jun-27 20:00 UTC.
Time now 2017-Jun-27 22:19 UTC

Location: S 51°37' W 069°17'.
View on Google Maps.

See reports from other nearby stations

  
Tides and Currents Weather Stations Pressure Air Temp Water Temp Dewpoint Dewpoint Depression Visibility Wind Speed Wind Dir Waves Ship Positions
date/time (UTC)wind fromknots sea level pressurealtimeterstation pressurevisibilityair tempwater tempwave heightnotes
2017-Jun-27 21:00 320 6 5.4 2.0
2017-Jun-27 20:00 5.4 3.0
2017-Jun-27 19:00 320 6 5.4 2.0
2017-Jun-27 18:00 5.4 1.0
2017-Jun-27 17:00 340 5 5.4 1.0
2017-Jun-27 16:00 360 4 5.4-0.0
2017-Jun-27 15:00 5.4-2.0
2017-Jun-27 14:00 5.4-2.0
2017-Jun-27 13:00 320 5 5.4-3.0
2017-Jun-27 12:00 5.4-3.0
2017-Jun-27 11:00 5.4-3.0
2017-Jun-27 10:00 270 1 5.4-4.0
2017-Jun-27 09:00 320 8 5.4-3.0
2017-Jun-27 08:00 5.4-4.0
2017-Jun-27 07:00 5.4-3.0
2017-Jun-27 06:00 320 6 5.4-3.0
2017-Jun-27 05:00 360 6 5.4-3.0
2017-Jun-27 04:00 5.4-1.0
2017-Jun-27 03:00 5.4-3.0
2017-Jun-27 02:00 270 5 5.4-2.0
2017-Jun-27 01:00 290 7 5.4-2.0
2017-Jun-27 00:00 270 8 5.4-1.0
2017-Jun-26 23:00 290 6 5.4-1.0
2017-Jun-26 22:00 320 7 5.4-0.0
2017-Jun-26 21:00 290 6 5.4 1.0
2017-Jun-26 20:00 360 2 5.4 1.0
2017-Jun-26 19:00 5.4 2.0
2017-Jun-26 18:00 270 11 5.4 3.0
2017-Jun-26 17:00 260 12 5.4 1.0
2017-Jun-26 16:00 260 11 5.4-0.0
2017-Jun-26 15:00 270 11 5.4-1.0
2017-Jun-26 14:00 250 7 5.4-3.0
2017-Jun-26 13:00 260 8 5.4-5.0
2017-Jun-26 12:00 220 2 5.4-5.0
2017-Jun-26 11:00 270 11 5.4-5.0
2017-Jun-26 10:00 260 9 5.4-6.0
2017-Jun-26 09:00 270 2 5.4-7.0
2017-Jun-26 08:00 320 1 5.4-9.0
2017-Jun-26 07:00 270 7 2.7-8.0 Mist.
2017-Jun-26 06:00 270 7 2.2-8.0 Mist.
2017-Jun-26 05:20 250 8 2.7-9.0 Mist.
2017-Jun-26 05:00 270 7 5.4-9.0
2017-Jun-26 04:00 270 7 5.4-7.0
2017-Jun-26 03:00 270 8 5.4-5.0
2017-Jun-26 02:00 270 11 5.4-4.0
2017-Jun-26 01:00 320 6 5.4-3.0
2017-Jun-26 00:00 320 7 5.4-2.0
2017-Jun-25 23:00 340 1 5.4-4.0
2017-Jun-25 22:00 340 1 5.4-3.0